• In Russia
  • List of Countries
  • For 7 days
  • Water Temperature
  • Satellite Maps
  • Weather Map
  • Weather Widgets
  • user-avatar
    Login

    Hourly Weather Salzburg

    Today, 24 February, Sunday

    Time Temperature Precipitation Wind Pressure Humidity
    00:00 -10°C° 0 mm 1 mps 633 mmHg 62%
    01:00 -10°C° 0 mm 1 mps 633 mmHg 60%
    02:00 -10°C° 0 mm 1 mps 633 mmHg 60%
    03:00 -10°C° 0 mm 1 mps 633 mmHg 60%
    04:00 -9°C° 0 mm 1 mps 632 mmHg 59%
    05:00 -9°C° 0 mm 1 mps 632 mmHg 60%
    06:00 -9°C° 0 mm 1 mps 632 mmHg 60%
    07:00 -9°C° 0 mm 1 mps 632 mmHg 61%
    08:00 -6°C° 0 mm 1 mps 633 mmHg 67%
    09:00 -4°C° 0 mm 0 mps 634 mmHg 74%
    10:00 -1°C° 0 mm 0 mps 635 mmHg 80%
    11:00 -1°C° 0 mm 0 mps 635 mmHg 83%
    12:00 0°C° 0 mm 0 mps 635 mmHg 86%
    13:00 +1°C° 0 mm 1 mps 635 mmHg 89%
    14:00 +1°C° 0 mm 1 mps 635 mmHg 90%
    15:00 +1°C° 0 mm 1 mps 635 mmHg 91%
    16:00 +1°C° 0 mm 1 mps 634 mmHg 92%
    17:00 -1°C° 0 mm 1 mps 634 mmHg 89%
    18:00 -2°C° 0 mm 1 mps 634 mmHg 87%
    19:00 -5°C° 0 mm 0 mps 634 mmHg 84%
    20:00 -4°C° 0 mm 1 mps 634 mmHg 83%
    21:00 -4°C° 0 mm 1 mps 634 mmHg 83%
    22:00 -4°C° 0 mm 1 mps 634 mmHg 82%
    23:00 -4°C° 0 mm 1 mps 634 mmHg 83%

    Tomorrow, 25 February, Monday

    Time Temperature Precipitation Wind Pressure Humidity
    00:00 -4°C° 0 mm 1 mps 634 mmHg 83%
    01:00 -4°C° 0 mm 1 mps 635 mmHg 84%
    02:00 -4°C° 0 mm 1 mps 634 mmHg 84%
    03:00 -4°C° 0 mm 1 mps 634 mmHg 84%
    04:00 -4°C° 0 mm 1 mps 634 mmHg 84%
    05:00 -4°C° 0 mm 1 mps 634 mmHg 85%
    06:00 -4°C° 0 mm 1 mps 634 mmHg 85%
    07:00 -4°C° 0 mm 1 mps 634 mmHg 85%
    08:00 -2°C° 0 mm 1 mps 635 mmHg 87%
    09:00 0°C° 0 mm 1 mps 635 mmHg 90%
    10:00 0°C° 0 mm 0 mps 636 mmHg 93%
    11:00 +1°C° 0 mm 0 mps 636 mmHg 93%
    12:00 +1°C° 0 mm 0 mps 636 mmHg 93%
    13:00 +2°C° 0 mm 0 mps 636 mmHg 93%
    14:00 +2°C° 0 mm 0 mps 635 mmHg 94%
    15:00 +1°C° 0 mm 0 mps 635 mmHg 95%
    16:00 +1°C° 0 mm 0 mps 635 mmHg 95%
    17:00 0°C° 0 mm 0 mps 635 mmHg 95%
    18:00 0°C° 0 mm 1 mps 634 mmHg 94%
    19:00 -1°C° 0 mm 1 mps 634 mmHg 93%
    20:00 -2°C° 0 mm 1 mps 634 mmHg 91%
    21:00 -2°C° 0 mm 1 mps 634 mmHg 89%
    22:00 -3°C° 0 mm 1 mps 634 mmHg 86%
    23:00 -3°C° 0 mm 1 mps 634 mmHg 85%

    Day after tomorrow, 26 February, Tuesday

    Time Temperature Precipitation Wind Pressure Humidity
    00:00 -3°C° 0 mm 1 mps 634 mmHg 84%
    01:00 -3°C° 0 mm 1 mps 634 mmHg 82%
    02:00 -3°C° 0 mm 1 mps 634 mmHg 80%
    03:00 -3°C° 0 mm 1 mps 633 mmHg 78%
    04:00 -4°C° 0 mm 1 mps 633 mmHg 76%
    05:00 -4°C° 0 mm 1 mps 633 mmHg 74%
    06:00 -4°C° 0 mm 1 mps 633 mmHg 72%
    07:00 -4°C° 0 mm 1 mps 633 mmHg 70%
    08:00 -2°C° 0 mm 1 mps 633 mmHg 75%
    09:00 0°C° 0 mm 1 mps 634 mmHg 80%
    10:00 +1°C° 0 mm 0 mps 634 mmHg 86%
    11:00 +3°C° 0 mm 1 mps 634 mmHg 86%
    12:00 +3°C° 0 mm 1 mps 634 mmHg 86%
    13:00 +4°C° 0 mm 1 mps 634 mmHg 86%
    14:00 +3°C° 0 mm 1 mps 634 mmHg 88%
    15:00 +3°C° 0 mm 1 mps 633 mmHg 89%
    16:00 +3°C° 0 mm 1 mps 633 mmHg 90%
    17:00 +1°C° 0 mm 1 mps 633 mmHg 85%
    18:00 0°C° 0 mm 1 mps 633 mmHg 81%
    19:00 -1°C° 0 mm 1 mps 632 mmHg 76%
    20:00 -2°C° 0 mm 1 mps 632 mmHg 74%
    21:00 -2°C° 0 mm 1 mps 632 mmHg 72%
    22:00 -2°C° 0 mm 1 mps 632 mmHg 71%
    23:00 -2°C° 0 mm 1 mps 632 mmHg 69%

    27 February, Wednesday

    Time Temperature Precipitation Wind Pressure Humidity
    00:00 -2°C° 0 mm 1 mps 632 mmHg 68%
    01:00 -2°C° 0 mm 1 mps 632 mmHg 66%
    02:00 -2°C° 0 mm 1 mps 632 mmHg 65%
    03:00 -2°C° 0 mm 1 mps 631 mmHg 64%
    04:00 -2°C° 0 mm 1 mps 631 mmHg 63%
    05:00 -2°C° 0 mm 1 mps 631 mmHg 63%
    06:00 -2°C° 0 mm 1 mps 631 mmHg 62%
    07:00 -2°C° 0 mm 1 mps 631 mmHg 62%
    08:00 0°C° 0 mm 1 mps 631 mmHg 70%
    09:00 +2°C° 0 mm 1 mps 632 mmHg 78%
    10:00 +3°C° 0 mm 1 mps 632 mmHg 86%
    11:00 +3°C° 0 mm 0 mps 632 mmHg 86%
    12:00 +4°C° 0 mm 0 mps 632 mmHg 86%
    13:00 +5°C° 0 mm 0 mps 632 mmHg 86%
    14:00 +5°C° 0 mm 0 mps 632 mmHg 88%
    15:00 +4°C° 0 mm 0 mps 631 mmHg 89%
    16:00 +4°C° 0 mm 0 mps 631 mmHg 91%
    17:00 +4°C° 0 mm 1 mps 630 mmHg 86%
    18:00 +2°C° 0 mm 1 mps 630 mmHg 81%
    19:00 -1°C° 0 mm 2 mps 630 mmHg 76%
    20:00 -1°C° 0 mm 2 mps 629 mmHg 73%
    21:00 -1°C° 0 mm 2 mps 629 mmHg 70%
    22:00 -2°C° 0 mm 2 mps 629 mmHg 67%
    23:00 -2°C° 0 mm 2 mps 629 mmHg 66%

    28 February, Thursday

    Time Temperature Precipitation Wind Pressure Humidity
    00:00 -2°C° 0 mm 2 mps 629 mmHg 65%
    01:00 -2°C° 0 mm 2 mps 629 mmHg 63%
    02:00 -2°C° 0 mm 2 mps 629 mmHg 63%
    03:00 -2°C° 0 mm 2 mps 628 mmHg 63%
    04:00 -2°C° 0 mm 2 mps 628 mmHg 63%
    05:00 -2°C° 0 mm 2 mps 628 mmHg 64%
    06:00 -2°C° 0 mm 2 mps 628 mmHg 64%
    07:00 -2°C° 0 mm 2 mps 627 mmHg 64%
    08:00 +1°C° 0 mm 1 mps 628 mmHg 71%
    09:00 +3°C° 0 mm 1 mps 628 mmHg 78%
    10:00 +5°C° 0 mm 1 mps 629 mmHg 84%
    11:00 +6°C° 0 mm 1 mps 629 mmHg 84%
    12:00 +6°C° 0 mm 1 mps 629 mmHg 84%
    13:00 +7°C° 0 mm 1 mps 629 mmHg 84%
    14:00 +7°C° 0 mm 1 mps 628 mmHg 85%
    15:00 +6°C° 0 mm 1 mps 628 mmHg 87%
    16:00 +6°C° 0 mm 1 mps 627 mmHg 88%
    17:00 +4°C° 0 mm 1 mps 627 mmHg 87%
    18:00 +3°C° 0 mm 1 mps 627 mmHg 85%
    19:00 +1°C° 0 mm 1 mps 626 mmHg 84%
    20:00 +1°C° 0 mm 1 mps 626 mmHg 84%
    21:00 0°C° 0 mm 1 mps 626 mmHg 84%
    22:00 0°C° 0 mm 1 mps 626 mmHg 84%
    23:00 0°C° 0 mm 1 mps 626 mmHg 85%

    1 March, Friday

    Time Temperature Precipitation Wind Pressure Humidity
    00:00 -1°C° 0 mm 1 mps 626 mmHg 85%
    01:00 -1°C° 0 mm 1 mps 626 mmHg 86%
    02:00 -1°C° 0 mm 1 mps 626 mmHg 87%
    03:00 -1°C° 0 mm 1 mps 626 mmHg 87%
    04:00 -2°C° 0 mm 1 mps 625 mmHg 87%
    05:00 -2°C° 0 mm 1 mps 625 mmHg 87%
    06:00 -2°C° 0 mm 1 mps 625 mmHg 87%
    07:00 -2°C° 0 mm 1 mps 625 mmHg 87%
    08:00 0°C° 0 mm 1 mps 626 mmHg 85%
    09:00 +1°C° 0 mm 1 mps 626 mmHg 84%
    10:00 +2°C° 0 mm 0 mps 627 mmHg 83%
    11:00 +4°C° 0 mm 1 mps 627 mmHg 83%
    12:00 +4°C° 0 mm 1 mps 627 mmHg 83%
    13:00 +5°C° 0 mm 1 mps 626 mmHg 83%
    14:00 +4°C° 0 mm 1 mps 626 mmHg 86%
    15:00 +4°C° 0 mm 1 mps 626 mmHg 88%
    16:00 +3°C° 0 mm 1 mps 625 mmHg 91%
    17:00 +1°C° 0 mm 0 mps 625 mmHg 92%
    18:00 +1°C° 0 mm 0 mps 625 mmHg 93%
    19:00 0°C° 0 mm 0 mps 625 mmHg 95%
    20:00 -1°C° 0.1 mm 0 mps 625 mmHg 95%
    21:00 -1°C° 0.1 mm 0 mps 625 mmHg 95%
    22:00 -1°C° 0.1 mm 0 mps 625 mmHg 96%
    23:00 -2°C° 0 mm 0 mps 625 mmHg 96%
    Show more